Weather History for KIWA - January, 2013

Change the Weather History Date:

Saturday, January 19, 2013

  Actual Average Record
Temperature  
Mean Temperature 54 °F -  
Max Temperature 73 °F 65 °F 82 °F (2009)
Min Temperature 35 °F 41 °F 30 °F (2001)
Degree Days  
Heating Degree Days 11    
Growing Degree Days 4 (Base 50)    
Moisture  
Dew Point 24 °F    
Average Humidity 40    
Maximum Humidity 65    
Minimum Humidity 12    
Precipitation  
Precipitation 0.00 in - - ()
Sea Level Pressure  
Sea Level Pressure 30.16 in    
Wind  
Wind Speed 4 mph (ESE)    
Max Wind Speed 8 mph    
Max Gust Speed -    
Visibility 11 miles    
Events      
Averages and records for this station are not official NWS values.
T = Trace of Precipitation, MM = Missing Value Source: NWS Daily Summary

Daily Weather History Graph

Daily Weather History Graph

Search for Another Location

Airport or City:

Trip Planner

Search our weather history database for the weather conditions in past years. The results will help you decide how hot, cold, wet, or windy it might be!

Date:

Astronomy

Jan. 19, 2013 Rise Set
Actual Time 7:29 AM MST 5:46 PM MST
Civil Twilight 7:02 AM MST 6:12 PM MST
Nautical Twilight 6:32 AM MST 6:43 PM MST
Astronomical Twilight 6:02 AM MST 7:12 PM MST
Moon 12:11 PM MST (1/19) 1:11 AM MST (1/19)
Length of Visible Light 11h 10m
Length of Day
10h 17m
First Quarter, 58% of the Moon is Illuminated
Jan 19
First Quarter
Jan 26
Full
Feb 3
Last Quarter
Feb 10
New
Feb 17
First Quarter

Hourly Weather History & Observations

Time (MST) Temp. Windchill Dew Point Humidity Pressure Visibility Wind Dir Wind Speed Gust Speed Precip Events Conditions
12:15 AM 44.6 °F 41.4 °F 26.6 °F 49% 30.15 in 10.0 mi SSE 5.8 mph - N/A   Clear
12:35 AM 44.6 °F 42.2 °F 24.8 °F 46% 30.15 in 10.0 mi SSE 4.6 mph - N/A   Clear
12:55 AM 42.8 °F 40.1 °F 24.8 °F 49% 30.15 in 10.0 mi SE 4.6 mph - N/A   Clear
1:15 AM 42.8 °F 39.3 °F 26.6 °F 53% 30.15 in 10.0 mi SE 5.8 mph - N/A   Clear
1:35 AM 42.8 °F 39.3 °F 26.6 °F 53% 30.15 in 10.0 mi SE 5.8 mph - N/A   Clear
1:55 AM 42.8 °F 39.3 °F 26.6 °F 53% 30.16 in 10.0 mi SSE 5.8 mph - N/A   Clear
2:15 AM 41.0 °F 36.4 °F 24.8 °F 53% 30.16 in 10.0 mi SSE 6.9 mph - N/A   Clear
2:35 AM 41.0 °F 37.1 °F 24.8 °F 53% 30.16 in 10.0 mi SE 5.8 mph - N/A   Clear
2:55 AM 41.0 °F 38.0 °F 23.0 °F 49% 30.16 in 10.0 mi East 4.6 mph - N/A   Clear
3:15 AM 41.0 °F 36.4 °F 24.8 °F 53% 30.16 in 10.0 mi East 6.9 mph - N/A   Clear
3:35 AM 41.0 °F 38.0 °F 24.8 °F 53% 30.16 in 10.0 mi ENE 4.6 mph - N/A   Clear
3:55 AM 42.8 °F 39.3 °F 23.0 °F 46% 30.16 in 10.0 mi ENE 5.8 mph - N/A   Clear
4:15 AM 44.6 °F - 23.0 °F 43% 30.17 in 10.0 mi Calm Calm - N/A   Clear
4:35 AM 42.8 °F 40.1 °F 23.0 °F 46% 30.17 in 10.0 mi ESE 4.6 mph - N/A   Clear
5:47 AM 37.4 °F 34.9 °F 24.8 °F 60% 30.17 in 20.0 mi Variable 3.5 mph - N/A   Partly Cloudy
6:47 AM 37.4 °F 33.8 °F 24.8 °F 60% 30.19 in 20.0 mi East 4.6 mph - N/A   Partly Cloudy
7:47 AM 35.6 °F 31.7 °F 24.8 °F 65% 30.22 in 45.0 mi East 4.6 mph - N/A   Clear
8:47 AM 42.8 °F 41.1 °F 26.6 °F 53% 30.24 in 45.0 mi Variable 3.5 mph - N/A   Clear
9:47 AM 48.2 °F - 24.8 °F 40% 30.25 in 45.0 mi Calm Calm - N/A   Clear
10:47 AM 55.4 °F - 26.6 °F 33% 30.25 in 45.0 mi Calm Calm - N/A   Clear
11:47 AM 60.8 °F - 24.8 °F 25% 30.22 in 45.0 mi NNW 3.5 mph - N/A   Clear
1:47 PM 71.6 °F - 21.2 °F 15% 30.15 in 35.0 mi Calm Calm - N/A   Partly Cloudy
2:47 PM 73.4 °F - 19.4 °F 13% 30.14 in 35.0 mi WNW 4.6 mph - N/A   Partly Cloudy
3:47 PM 73.4 °F - 17.6 °F 12% 30.13 in 35.0 mi WNW 3.5 mph - N/A   Partly Cloudy
4:47 PM 73.4 °F - 17.6 °F 12% 30.12 in 35.0 mi WNW 3.5 mph - N/A   Partly Cloudy
5:47 PM 68.0 °F - 17.6 °F 15% 30.12 in 35.0 mi Calm Calm - N/A   Partly Cloudy
6:47 PM 64.4 °F - 19.4 °F 18% 30.13 in 20.0 mi Calm Calm - N/A   Partly Cloudy
7:47 PM 57.2 °F - 21.2 °F 25% 30.14 in 20.0 mi Calm Calm - N/A   Partly Cloudy
7:55 PM 57.2 °F - 24.8 °F 29% 30.15 in 10.0 mi Calm Calm - N/A   Clear
8:15 PM 59.0 °F - 23.0 °F 25% 30.15 in 10.0 mi Calm Calm - N/A   Clear
8:35 PM 51.8 °F - 23.0 °F 33% 30.15 in 10.0 mi ESE 3.5 mph - N/A   Clear
8:47 PM 53.6 °F - 23.0 °F 30% 30.15 in 20.0 mi Calm Calm - N/A   Partly Cloudy
8:55 PM 51.8 °F - 24.8 °F 35% 30.15 in 10.0 mi East 4.6 mph - N/A   Clear
9:15 PM 50.0 °F - 26.6 °F 40% 30.15 in 10.0 mi ESE 5.8 mph - N/A   Clear
9:35 PM 50.0 °F - 26.6 °F 40% 30.15 in 2.0 mi East 5.8 mph - N/A   Haze
9:55 PM 46.4 °F 42.9 °F 26.6 °F 46% 30.16 in 4.0 mi East 6.9 mph - N/A   Haze
10:15 PM 48.2 °F - 26.6 °F 43% 30.16 in 5.0 mi ESE 8.1 mph - N/A   Haze
10:35 PM 44.6 °F 41.4 °F 26.6 °F 49% 30.16 in 10.0 mi ESE 5.8 mph - N/A   Clear
10:55 PM 46.4 °F 42.4 °F 24.8 °F 43% 30.16 in 10.0 mi East 8.1 mph - N/A   Clear
11:15 PM 48.2 °F - 24.8 °F 40% 30.16 in 10.0 mi SE 4.6 mph - N/A   Clear
11:35 PM 44.6 °F 40.2 °F 24.8 °F 46% 30.16 in 10.0 mi SSE 8.1 mph - N/A   Clear
11:55 PM 44.6 °F 40.7 °F 26.6 °F 49% 30.16 in 7.0 mi ESE 6.9 mph - N/A   Clear